This is the latest recevied weather packets stored in our database for station/object G0TQM-11. If no packets are shown the sender has not sent any weather packets the latest 10 day(s).
| Time | Temp. | Humidity | Pressure | Rain* | Wind** | Luminosity | Snow |
|---|---|---|---|---|---|---|---|
| 1788135706 | 17.22° C | 64% | 999.8 hPa | - | - | - | - |
| 1788134506 | 17.78° C | 63% | 999.6 hPa | - | - | - | - |
| 1788133305 | 17.78° C | 64% | 999.6 hPa | - | - | - | - |
| 1788132105 | 18.33° C | 66% | 999.5 hPa | - | - | - | - |
| 1788130905 | 18.33° C | 66% | 999.5 hPa | - | - | - | - |
| 1788129705 | 19.44° C | 67% | 999.6 hPa | - | - | - | - |
| 1788128505 | 20° C | 65% | 999.7 hPa | - | - | - | - |
| 1788127305 | 20° C | 67% | 999.5 hPa | - | - | - | - |
| 1788126105 | 20° C | 64% | 999.5 hPa | - | - | - | - |
| 1788124903 | 20° C | 65% | 999.4 hPa | - | - | - | - |
| 1788123703 | 20° C | 65% | 999.3 hPa | - | - | - | - |
| 1788122502 | 20° C | 66% | 999.5 hPa | - | - | - | - |
| 1788121302 | 20° C | 64% | 999.6 hPa | - | - | - | - |
| 1788120104 | 20° C | 65% | 999.6 hPa | - | - | - | - |
| 1788118902 | 20.56° C | 65% | 999.7 hPa | - | - | - | - |
| 1788117709 | 20.56° C | 64% | 999.6 hPa | - | - | - | - |
| 1788116508 | 21.67° C | 63% | 999.7 hPa | - | - | - | - |
| 1788115308 | 22.78° C | 62% | 999.8 hPa | - | - | - | - |
| 1788114108 | 22.22° C | 61% | 1000 hPa | - | - | - | - |
| 1788112907 | 20.56° C | 62% | 1000.2 hPa | - | - | - | - |
| 1788111707 | 21.67° C | 64% | 999.9 hPa | - | - | - | - |
| 1788110507 | 21.67° C | 63% | 1000 hPa | - | - | - | - |
| 1788109307 | 21.67° C | 59% | 1000.5 hPa | - | - | - | - |
| 1788108107 | 25° C | 52% | 1000.3 hPa | - | - | - | - |
| 1788106907 | 27.22° C | 56% | 1000 hPa | - | - | - | - |
* Rain since midnight (hover to see other rain measurements)
** Current wind speed in m/s (hover to see current wind gust speed)